Dewpoint
62 65 66 62 66 65 66 69 66 65 67 66 65 65 64 66 66 65 67 67 67 65 66 66 67 66 68 67 67 67 67 67 67 67 67 66 67 66 65 64 64 65
64 66 68 67 67 67 65 62 66 62 64 65 65 65 66 66 66 66 66 65 66 65 65 65 65 66 66 66 66 66 66 66 66 69 67 66 67 66 65 64 63 64
65 65 65 64 65 63 61 62 66 64 63 63 64 66 66 66 64 65 65 64 64 64 65 65 65 65 66 66 66 66 66 65 66 67 68 67 66 65 64 64 64 63
65 63 61 62 64 63 64 65 62 64 64 63 63 63 64 66 64 62 64 69 65 65 66 66 64 64 64 64 65 66 65 65 65 67 66 66 66 65 64 64 64 63
63 64 63 63 64 64 63 61 62 63 63 64 65 65 65 64 64 65 65 65 65 65 64 64 64 65 66 66 66 65 65 66 67 66 65 64 65 66 65 65 63 62
64 64 64 64 64 65 63 62 62 61 63 63 63 67 66 66 65 65 65 64 64 62 62 62 63 64 64 64 64 65 65 66 67 66 65 65 65 66 66 65 63 62
65 64 63 63 64 65 62 61 61 64 63 62 65 63 64 64 64 64 64 64 64 64 63 63 64 64 65 65 64 64 65 67 66 66 65 64 65 65 65 64 64 63
64 64 63 63 63 63 64 63 64 64 63 64 62 63 65 64 63 64 64 64 63 63 64 64 63 63 63 63 63 63 64 65 65 64 63 63 64 64 65 65 63 61
63 63 63 63 63 63 62 63 64 63 64 63 63 64 64 63 64 63 63 64 64 62 61 62 64 64 64 64 64 63 63 64 65 63 63 63 64 64 64 63 61 61
64 64 63 63 62 63 62 61 62 61 63 63 63 63 62 64 64 64 64 62 61 61 62 62 62 62 64 64 63 63 63 63 63 63 64 65 64 63 63 62 60 60
64 64 63 63 61 62 61 59 58 58 64 63 62 62 61 61 62 62 61 60 61 61 62 62 63 63 64 64 63 64 63 63 62 62 63 62 62 63 64 63 61 60
62 62 62 61 60 60 59 58 58 59 58 60 58 57 58 59 58 60 62 61 59 58 59 61 62 62 64 64 64 63 63 62 64 64 65 64 64 64 63 64 62 60
61 61 60 60 61 60 60 60 59 56 56 57 58 55 55 58 60 60 61 60 61 62 62 62 63 62 60 65 64 63 63 63 63 63 63 63 63 64 64 63 62 61
60 61 60 61 62 62 62 60 59 60 61 62 62 60 59 59 58 59 59 61 62 62 61 62 60 63 65 64 64 64 63 63 62 62 61 60 60 61 63 63 63 62
61 61 61 62 64 64 63 62 61 62 62 63 64 62 62 60 60 60 60 61 61 61 60 60 64 64 65 64 62 62 63 64 64 63 62 61 60 60 61 62 62 62
62 63 62 63 63 62 61 61 61 62 62 62 62 62 62 62 61 62 62 61 59 58 60 62 63 63 64 63 64 64 63 64 64 63 62 61 61 61 61 61 61 60
63 63 63 63 63 62 62 62 61 62 63 63 63 63 63 63 63 62 61 59 58 59 58 62 62 63 62 61 61 63 63 62 62 63 63 62 61 59 57 57 58 58
63 63 63 63 63 62 62 62 63 63 63 63 63 63 64 63 63 62 61 60 60 57 57 62 61 61 60 59 60 60 62 62 62 62 62 60 59 58 58 58 58 59
62 62 62 62 62 62 62 62 62 63 63 63 63 63 64 64 63 62 61 61 59 57 56 60 59 61 59 58 58 59 60 61 61 62 62 61 61 60 60 60 60 61
62 62 61 62 62 62 62 62 62 62 62 61 62 64 64 63 62 62 61 60 59 58 59 61 61 61 58 57 57 57 58 60 60 61 61 61 61 61 62 61 61 61
62 62 62 62 62 62 62 62 62 62 62 62 62 62 63 62 61 60 60 61 60 61 61 62 63 59 56 55 55 55 56 59 58 59 59 60 61 62 62 62 61 61
62 62 63 62 63 62 62 62 62 61 62 63 64 63 62 61 61 61 60 60 59 60 62 61 62 58 55 55 54 55 57 58 58 58 59 60 61 62 62 61 61 62
62 62 62 62 62 62 62 61 61 61 62 63 63 63 61 60 59 58 59 58 59 61 61 61 60 57 54 53 53 54 55 57 58 59 60 60 61 61 61 61 61 60
62 62 61 61 61 61 62 61 61 62 61 62 60 59 58 57 57 59 60 60 58 56 60 60 60 60 55 52 53 53 55 58 58 58 59 60 61 62 62 61 61 63
62 62 61 60 60 60 60 61 61 61 61 62 60 59 58 59 60 59 60 57 55 57 61 57 58 57 52 53 53 53 57 59 60 60 61 61 61 61 61 61 60 61
62 62 61 60 60 60 60 60 61 61 62 63 61 60 59 60 59 61 58 57 56 57 60 59 58 58 60 52 53 53 55 58 59 59 60 60 60 61 61 60 60 59